Presure
101 110 112 116 117 119 84 77 98 117 111 112 108 107 106 113 115 115 105 106 102 121 98 97 125 161 162 118 122 129 128 107 97
83 109 107 121 108 86 98 94 107 118 114 109 99 105 114 115 110 109 115 116 97 110 111 96 184 109 177 179 99 170 121 125 118
91 106 105 103 113 116 101 117 97 115 115 112 109 117 110 107 101 104 99 97 97 94 117 96 136 97 171 150 153 179 123 120 142
106 107 108 108 110 111 123 114 109 117 106 107 113 110 107 104 103 101 101 99 100 102 106 131 102 111 106 111 133 122 105 177 125
106 111 106 106 109 105 108 109 124 101 81 96 105 99 102 95 97 98 99 103 92 90 116 115 106 105 137 125 177 179 127 126 123
152 108 106 106 109 106 106 116 114 101 102 105 95 114 96 102 97 97 94 95 93 135 98 115 99 117 109 176 173 181 187 126 132
161 102 105 107 106 108 109 109 110 108 110 109 96 108 99 96 90 93 101 122 105 102 102 115 100 125 106 174 174 181 182 167 134
103 113 113 102 105 98 100 100 98 101 103 102 101 94 95 100 95 95 95 101 94 114 118 97 112 109 115 169 179 180 170 130 208
122 108 127 101 101 96 97 100 97 95 97 94 96 99 102 103 89 95 120 104 116 105 121 120 124 126 128 138 184 176 166 169 205
168 172 139 100 99 99 98 105 103 102 101 102 102 103 97 102 94 100 118 105 118 98 106 126 127 104 121 174 134 170 169 172 166
124 130 151 144 168 119 102 104 105 102 100 98 104 102 115 137 111 111 114 109 126 104 148 124 123 120 118 168 164 170 169 104 157
120 159 160 157 155 161 154 162 170 110 103 102 101 123 128 180 128 117 108 121 126 130 166 124 123 118 118 160 157 169 174 173 183
161 161 146 168 163 155 130 121 126 121 120 126 121 127 147 139 102 114 122 131 132 127 123 116 123 123 165 164 177 168 171 180 184
133 147 130 169 152 100 156 136 137 169 159 170 126 134 144 127 135 134 149 128 120 115 129 121 126 124 165 178 179 169 175 160 100
94 107 125 129 162 160 145 164 161 162 142 172 170 166 164 159 136 160 168 162 119 123 124 122 122 165 175 180 180 169 119 100 188
95 100 102 103 124 126 125 123 124 123 124 121 122 166 169 170 170 133 159 167 150 103 123 123 172 168 183 178 172 101 91 182 184
98 100 92 92 103 102 104 109 110 116 118 109 116 116 111 110 148 111 134 114 166 117 119 117 173 163 182 128 122 112 180 184 188
116 122 102 103 99 96 97 108 107 102 107 103 109 114 106 103 106 106 111 111 115 110 171 111 163 101 146 172 172 139 182 151 194
125 185 179 165 117 109 111 97 98 99 100 103 107 109 109 108 157 139 104 170 167 108 178 183 115 97 180 99 113 182 114 101 210
190 157 169 182 173 178 181 184 126 114 106 105 177 176 106 105 126 139 168 164 104 176 184 188 97 97 169 101 175 182 96 171 215
Wind_Speed
27 24 22 20 19 18 22 15 19 16 14 14 13 13 13 15 16 18 14 15 16 23 19 19 27 35 36 28 30 30 31 30 24
27 25 24 24 22 24 21 22 17 18 17 16 15 14 16 16 15 17 21 21 16 20 20 21 37 26 40 39 30 38 34 35 32
26 28 27 26 24 24 23 21 20 19 19 18 18 19 16 16 17 17 18 18 19 19 25 22 30 25 41 40 38 37 37 37 40
32 30 28 27 26 24 27 23 22 23 20 20 21 18 17 17 18 19 20 21 23 23 25 30 26 26 28 31 35 32 39 41 40
32 32 30 29 28 24 24 24 29 23 19 19 19 17 18 17 19 21 22 23 20 18 27 29 30 29 39 33 45 44 36 40 42
47 33 31 30 29 26 26 30 28 23 23 23 20 25 19 21 20 23 21 24 24 31 28 31 29 35 31 46 46 48 47 40 35
55 33 32 31 29 29 30 28 28 27 27 26 22 25 21 21 21 23 26 31 29 28 31 34 30 41 36 45 48 49 49 44 33
36 43 40 33 31 27 27 26 25 25 26 25 24 25 24 24 25 26 26 28 28 34 36 31 32 38 40 44 48 49 49 41 52
50 40 51 35 32 31 30 29 28 27 26 26 26 28 28 27 26 28 34 31 35 32 40 41 43 46 46 48 48 48 50 52 52
68 64 52 37 33 34 32 35 34 32 30 30 30 30 28 29 29 32 39 34 38 33 36 45 45 37 45 45 41 49 51 53 47
54 55 59 58 61 49 37 38 38 35 33 32 35 33 39 40 36 36 38 36 43 35 47 43 43 44 44 43 45 49 53 32 48
57 66 66 65 64 63 58 58 58 41 36 35 37 47 48 49 47 42 38 44 46 48 47 44 43 43 45 44 46 48 52 55 56
79 72 63 71 68 63 56 56 55 52 50 49 48 51 52 47 37 44 48 49 50 50 46 40 44 46 46 47 51 48 51 54 55
68 71 64 74 67 45 63 55 55 63 57 59 47 48 55 52 53 54 52 51 47 44 53 46 49 48 46 54 54 51 53 52 42
50 57 65 65 74 71 66 69 65 63 62 61 60 58 58 57 58 56 54 51 49 51 53 49 46 52 52 56 55 53 45 47 58
56 56 55 55 66 64 61 59 60 58 57 55 53 61 61 62 61 58 53 57 54 40 53 51 58 54 58 56 55 42 36 60 60
62 61 51 48 56 54 54 56 56 58 55 51 54 52 49 47 55 49 54 49 59 50 51 48 60 56 60 47 47 45 60 62 62
80 81 62 62 57 53 53 58 56 53 53 52 53 55 48 49 51 50 52 53 53 45 65 45 57 42 52 57 59 53 63 54 64
82 95 94 90 76 68 68 53 54 56 52 55 54 56 55 54 63 61 51 66 65 49 70 70 46 44 60 44 47 64 49 53 60
101 85 94 96 90 91 89 88 73 67 61 58 80 75 58 57 62 60 67 62 50 70 74 72 43 46 59 48 62 64 46 62 58
Wind_Direction
216 223 226 233 235 239 229 234 241 248 263 268 274 282 292 291 301 308 321 324 327 311 332 334 321 309 311 318 313 318 318 326 327
220 223 224 239 232 232 238 238 252 250 255 265 267 282 283 294 301 308 304 305 326 319 311 332 317 323 311 318 329 322 315 318 318
223 221 223 228 246 244 240 248 247 256 259 264 270 274 285 290 300 300 307 315 322 325 313 326 314 328 310 311 320 327 316 317 322
224 222 226 230 238 243 245 248 251 253 257 262 264 273 277 283 291 298 302 309 310 314 314 310 317 312 317 318 321 317 317 325 317
231 231 227 230 236 231 243 249 246 248 257 260 268 269 276 283 295 297 300 298 310 310 305 305 305 311 318 313 319 323 315 315 316
245 235 234 234 238 236 240 248 249 249 254 259 263 267 274 280 288 290 297 300 304 302 307 305 307 313 310 316 316 323 329 315 323
250 234 238 239 240 242 245 248 251 254 258 260 263 268 274 279 282 286 290 294 299 301 301 306 305 313 310 315 316 322 325 323 323
235 237 239 241 243 236 241 244 247 252 256 258 260 263 270 271 276 281 285 293 294 300 305 299 307 308 310 312 318 321 319 314 330
236 239 241 242 242 238 241 248 247 247 253 255 259 263 268 273 270 280 287 290 296 294 303 306 308 309 312 314 320 320 315 319 329
249 249 249 243 241 243 245 252 254 256 258 262 264 266 265 272 272 279 288 287 290 290 295 300 304 304 309 317 310 317 316 318 322
241 241 246 247 254 248 250 252 256 258 258 258 268 268 270 275 279 282 285 286 291 290 296 297 301 304 305 311 310 316 316 310 318
244 247 248 251 254 257 257 261 262 259 258 256 259 269 270 279 274 283 279 289 290 290 299 295 298 301 303 302 303 313 316 316 318
246 246 244 251 253 255 255 254 256 259 262 266 268 268 266 268 269 278 281 283 285 289 292 292 298 302 303 304 312 309 311 314 316
244 245 243 250 251 247 256 257 255 262 262 264 263 266 271 274 276 276 282 284 284 286 291 295 299 302 301 308 309 307 310 311 309
242 244 245 245 251 253 249 258 260 262 259 263 265 269 272 274 274 279 284 286 284 288 291 294 298 300 304 305 306 305 306 306 311
245 247 247 247 247 248 249 252 255 258 261 263 267 267 269 272 274 277 281 285 286 281 290 292 296 298 302 301 302 300 300 308 309
242 247 244 246 251 251 253 253 256 258 261 261 264 265 266 271 273 274 278 280 285 285 290 291 294 296 299 295 297 298 306 308 308
248 246 246 251 250 252 255 254 255 257 258 261 263 266 265 268 271 273 276 277 280 281 291 283 291 285 293 297 299 299 305 303 306
248 244 242 245 249 252 252 252 254 256 258 260 263 266 267 268 271 273 273 280 282 278 288 289 284 284 294 290 294 301 299 302 303
243 246 244 244 245 246 247 248 255 258 259 261 262 264 265 266 269 270 275 276 273 284 287 289 279 284 292 288 297 300 297 301 298